Regional Weather Roundup
Issued by NWS

Home | Current Version | Previous Version | Graphics & Text | Print | Product List | Glossary On
Versions: 1 2 3 4 5 6 7 8 9 10 11 12 13 14 15 16 17 18 19 20 21 22 23 24 25 26 27 28 29 30 31 32 33 34 35 36 37 38 39 40 41 42 43 44 45 46 47 48 49 50
000
ASUS45 KBOI 010510
RWRID

IDAHO REGIONAL WEATHER ROUNDUP
NATIONAL WEATHER SERVICE BOISE ID
1100 PM MDT MON AUG 31 2015

NOTE: "FAIR" INDICATES FEW OR NO CLOUDS BELOW 12000 FEET
WITH NO SIGNIFICANT WEATHER AND/OR OBSTRUCTIONS TO VISIBILITY

IDZ012-014-010600-
SOUTHWEST IDAHO


CITY           SKY/WX    TMP DP  RH WIND       PRES   REMARKS
BOISE          CLEAR     68  43  40 CALM      29.90S
CALDWELL       CLEAR     66  43  42 SW3       29.90S
MOUNTAIN HOME  CLEAR     67  36  31 NW3       29.91R
$$

IDZ016-017-010600-
SOUTHCENTRAL IDAHO


CITY           SKY/WX    TMP DP  RH WIND       PRES   REMARKS
BURLEY         CLEAR     59  41  51 S3        29.97S
JEROME         CLEAR     63  38  39 E5        29.97S
TWIN FALLS     CLEAR     63  27  25 SE12      29.97F
$$

IDZ019>023-010600-
SOUTHEAST IDAHO


CITY           SKY/WX    TMP DP  RH WIND       PRES   REMARKS
IDAHO FALLS    CLEAR     64  32  30 S7        30.01S
POCATELLO      CLEAR     59  36  42 CALM      30.01S
REXBURG        CLEAR     64  29  26 S7        30.01R
$$

IDZ006-010-011-018-031-032-010600-
CENTRAL IDAHO MOUNTAINS


CITY           SKY/WX    TMP DP  RH WIND       PRES   REMARKS
MCCALL         CLEAR     54  36  50 CALM      30.02S
HAILEY         PTCLDY    57  36  44 NW12      30.05S
STANLEY          N/A     47  30  51 CALM      30.12R
SALMON         PTCLDY    57  37  47 CALM      29.91R
CHALLIS        CLEAR     67  32  27 CALM      29.99R
$$

IDZ002-004-006-007-026-010600-
NORTHERN IDAHO


CITY           SKY/WX    TMP DP  RH WIND       PRES   REMARKS
LEWISTON       PTCLDY    67  44  43 S5        29.88R
LOWELL           N/A     58  53  84 CALM      29.93R
COEUR D`ALENE  PTCLDY    61  45  55 S8        29.88R
MULLAN PASS    PTCLDY    49  40  71 SW9       30.01S
$$



USA.gov is the U.S. government's official web portal to all federal, state and local government web resources and services.